This is the latest recevied weather packets stored in our database for station/object F6ZBX-10. If no packets are shown the sender has not sent any weather packets the latest 10 day(s).
| Time | Temp. | Humidity | Pressure | Rain* | Wind** | Luminosity | Snow |
|---|---|---|---|---|---|---|---|
| 1788586571 | 24.44° C | 64% | 1025.3 hPa | - | - | - | - |
| 1788585671 | 26.11° C | 57% | 1025.1 hPa | - | - | - | - |
| 1788584771 | 25.56° C | 59% | 1025 hPa | - | - | - | - |
| 1788583871 | 26.11° C | 57% | 1024.8 hPa | - | - | - | - |
| 1788582971 | 26.11° C | 57% | 1024.8 hPa | - | - | - | - |
| 1788582072 | 26.67° C | 56% | 1024.7 hPa | - | - | - | - |
| 1788581171 | 26.11° C | 57% | 1024.7 hPa | - | - | - | - |
| 1788580271 | 26.67° C | 54% | 1024.9 hPa | - | - | - | - |
| 1788579371 | 26.67° C | 54% | 1024.8 hPa | - | - | - | - |
| 1788578471 | 27.78° C | 51% | 1024.7 hPa | - | - | - | - |
| 1788577571 | 27.78° C | 51% | 1024.8 hPa | - | - | - | - |
| 1788576671 | 27.78° C | 51% | 1024.6 hPa | - | - | - | - |
| 1788575771 | 27.78° C | 51% | 1024.7 hPa | - | - | - | - |
| 1788573971 | 28.33° C | 52% | 1024.6 hPa | - | - | - | - |
| 1788573071 | 28.33° C | 51% | 1024.5 hPa | - | - | - | - |
| 1788572167 | 28.33° C | 51% | 1024.5 hPa | - | - | - | - |
| 1788571271 | 28.33° C | 51% | 1024.6 hPa | - | - | - | - |
| 1788570367 | 28.33° C | 52% | 1024.7 hPa | - | - | - | - |
| 1788569467 | 28.33° C | 52% | 1024.8 hPa | - | - | - | - |
| 1788568567 | 28.33° C | 52% | 1024.7 hPa | - | - | - | - |
| 1788567667 | 28.33° C | 52% | 1024.7 hPa | - | - | - | - |
| 1788566771 | 28.33° C | 51% | 1024.7 hPa | - | - | - | - |
| 1788564970 | 28.33° C | 52% | 1024.7 hPa | - | - | - | - |
| 1788564069 | 28.33° C | 52% | 1024.6 hPa | - | - | - | - |
| 1788563169 | 28.33° C | 52% | 1024.5 hPa | - | - | - | - |
* Rain since midnight (hover to see other rain measurements)
** Current wind speed in m/s (hover to see current wind gust speed)